| time (UTC) | temp F | wind direction | speed MPH | gust MPH | rain 1hr in | rain 24hr in | rain mn in | humidity % | barometer mb |
| 20260506132010 | 51 | 35 | 0.0 | 4.0 | 0.01 | 0.79 | 0.49 | 83 | 1011.1 |
| 20260506131515 | 51 | 15 | 0.0 | 5.0 | 0.01 | 0.79 | 0.49 | 87 | 1011.2 |
| 20260506131010 | 50 | 184 | 1.0 | 5.0 | 0.01 | 0.79 | 0.49 | 87 | 1011.2 |
| 20260506130511 | 49 | 146 | 2.0 | 4.0 | 0.01 | 0.79 | 0.49 | 86 | 1011.3 |
| 20260506130022 | 49 | 105 | 0.0 | 5.0 | 0.01 | 0.79 | 0.49 | 87 | 1011.3 |
| 20260506125507 | 49 | 117 | 2.0 | 5.0 | 0.01 | 0.79 | 0.49 | 86 | 1011.3 |
| 20260506125007 | 50 | 186 | 1.0 | 5.0 | 0.00 | 0.78 | 0.48 | 83 | 1011.2 |
| 20260506124524 | 51 | 143 | 1.0 | 7.0 | 0.00 | 0.78 | 0.48 | 81 | 1011.3 |
| 20260506124010 | 53 | 65 | 2.0 | 7.0 | 0.00 | 0.77 | 0.48 | 77 | 1011.2 |
| 20260506123510 | 54 | 290 | 1.0 | 4.0 | 0.00 | 0.77 | 0.48 | 74 | 1011.0 |
| 20260506123031 | 55 | 79 | 0.0 | 4.0 | 0.00 | 0.77 | 0.48 | 74 | 1011.0 |
| 20260506122503 | 54 | 162 | 1.0 | 5.0 | 0.00 | 0.77 | 0.48 | 77 | 1011.0 |
| 20260506122002 | 54 | 152 | 2.0 | 5.0 | 0.00 | 0.77 | 0.48 | 77 | 1011.0 |
| 20260506121518 | 53 | 128 | 1.0 | 4.0 | 0.00 | 0.77 | 0.48 | 78 | 1011.0 |
| 20260506121007 | 53 | 289 | 1.0 | 4.0 | 0.00 | 0.77 | 0.48 | 78 | 1011.1 |
| 20260506120507 | 52 | 91 | 1.0 | 6.0 | 0.00 | 0.77 | 0.48 | 81 | 1011.1 |
| 20260506120018 | 52 | 118 | 2.0 | 6.0 | 0.00 | 0.77 | 0.48 | 82 | 1011.1 |
| 20260506115507 | 53 | 141 | 3.0 | 6.0 | 0.00 | 0.77 | 0.48 | 84 | 1011.2 |
| 20260506115006 | 52 | 138 | 1.0 | 4.0 | 0.00 | 0.77 | 0.48 | 83 | 1011.2 |
| 20260506114521 | 51 | 96 | 1.0 | 4.0 | 0.00 | 0.78 | 0.48 | 86 | 1011.3 |
| 20260506114010 | 50 | 120 | 1.0 | 6.0 | 0.00 | 0.78 | 0.48 | 84 | 1011.3 |
| 20260506113507 | 50 | 139 | 1.0 | 6.0 | 0.00 | 0.78 | 0.48 | 86 | 1011.4 |
| 20260506113030 | 50 | 278 | 1.0 | 5.0 | 0.00 | 0.78 | 0.48 | 85 | 1011.4 |
| 20260506112512 | 50 | 281 | 1.0 | 7.0 | 0.00 | 0.78 | 0.48 | 81 | 1011.5 |
| 20260506112013 | 51 | 259 | 3.0 | 7.0 | 0.00 | 0.77 | 0.47 | 80 | 1011.4 |
| 20260506111525 | 52 | 307 | 1.0 | 4.0 | 0.00 | 0.77 | 0.47 | 81 | 1011.5 |
| 20260506111006 | 52 | 117 | 1.0 | 6.0 | 0.00 | 0.77 | 0.47 | 81 | 1011.5 |
| 20260506110504 | 52 | 164 | 1.0 | 6.0 | 0.00 | 0.77 | 0.47 | 82 | 1011.5 |
| 20260506110014 | 52 | 123 | 2.0 | 6.0 | 0.00 | 0.77 | 0.47 | 80 | 1011.5 |
| 20260506105508 | 52 | 260 | 1.0 | 6.0 | 0.00 | 0.77 | 0.47 | 82 | 1011.5 |
| 20260506105007 | 52 | 122 | 2.0 | 6.0 | 0.00 | 0.77 | 0.47 | 82 | 1011.5 |
| 20260506104515 | 51 | 129 | 1.0 | 3.0 | 0.00 | 0.77 | 0.47 | 83 | 1011.6 |
| 20260506104006 | 51 | 264 | 0.0 | 3.0 | 0.00 | 0.77 | 0.47 | 84 | 1011.7 |
| 20260506103508 | 50 | 239 | 0.0 | 3.0 | 0.00 | 0.77 | 0.47 | 86 | 1011.6 |
| 20260506103024 | 50 | 121 | 1.0 | 4.0 | 0.00 | 0.77 | 0.47 | 86 | 1011.7 |
| 20260506102509 | 49 | 151 | 1.0 | 4.0 | 0.00 | 0.77 | 0.47 | 88 | 1011.7 |
| 20260506102010 | 49 | 161 | 1.0 | 4.0 | 0.00 | 0.77 | 0.47 | 87 | 1011.7 |
| 20260506101525 | 48 | 226 | 1.0 | 3.0 | 0.00 | 0.77 | 0.47 | 88 | 1011.7 |
| 20260506101008 | 48 | 279 | 0.0 | 5.0 | 0.00 | 0.77 | 0.47 | 92 | 1011.7 |
| 20260506100509 | 47 | 273 | 1.0 | 5.0 | 0.00 | 0.77 | 0.47 | 90 | 1011.7 |
| 20260506100027 | 47 | 250 | 1.0 | 5.0 | 0.00 | 0.77 | 0.47 | 90 | 1011.6 |
| 20260506095510 | 47 | 122 | 0.0 | 5.0 | 0.00 | 0.77 | 0.47 | 89 | 1011.6 |
| 20260506095005 | 47 | 271 | 1.0 | 5.0 | 0.00 | 0.77 | 0.47 | 88 | 1011.5 |
| 20260506094516 | 48 | 280 | 1.0 | 5.0 | 0.00 | 0.77 | 0.47 | 87 | 1011.4 |
| 20260506094007 | 48 | 211 | 1.0 | 5.0 | 0.00 | 0.77 | 0.47 | 87 | 1011.3 |
| 20260506093506 | 49 | 138 | 1.0 | 5.0 | 0.00 | 0.77 | 0.47 | 86 | 1011.3 |
| 20260506093003 | 49 | 117 | 0.0 | 4.0 | 0.00 | 0.77 | 0.47 | 87 | 1011.2 |
| 20260506092502 | 49 | 41 | 1.0 | 4.0 | 0.00 | 0.77 | 0.47 | 86 | 1011.1 |
| 20260506092003 | 49 | 321 | 0.0 | 3.0 | 0.00 | 0.77 | 0.47 | 88 | 1011.0 |
| 20260506091509 | 49 | 136 | 0.0 | 3.0 | 0.00 | 0.77 | 0.47 | 87 | 1011.0 |
| 20260506091003 | 49 | 100 | 0.0 | 2.0 | 0.00 | 0.77 | 0.47 | 89 | 1011.0 |
| 20260506090503 | 49 | 113 | 0.0 | 3.0 | 0.00 | 0.77 | 0.47 | 89 | 1011.0 |
| 20260506090015 | 48 | 266 | 0.0 | 3.0 | 0.00 | 0.77 | 0.47 | 88 | 1011.0 |
| 20260506085508 | 48 | 120 | 0.0 | 2.0 | 0.00 | 0.77 | 0.47 | 89 | 1011.0 |
| 20260506085003 | 48 | 238 | 1.0 | 2.0 | 0.00 | 0.77 | 0.47 | 89 | 1011.0 |
| 20260506084508 | 48 | 255 | 0.0 | 2.0 | 0.00 | 0.77 | 0.47 | 90 | 1011.0 |
| 20260506084005 | 48 | 135 | 0.0 | 4.0 | 0.00 | 0.77 | 0.47 | 91 | 1010.9 |
| 20260506083506 | 47 | 149 | 0.0 | 4.0 | 0.00 | 0.77 | 0.47 | 91 | 1011.0 |
| 20260506083017 | 47 | 142 | 0.0 | 2.0 | 0.00 | 0.77 | 0.47 | 91 | 1011.0 |
| 20260506082509 | 47 | 227 | 1.0 | 2.0 | 0.00 | 0.77 | 0.47 | 92 | 1010.9 |
| 20260506082005 | 47 | 195 | 0.0 | 3.0 | 0.00 | 0.77 | 0.47 | 93 | 1011.0 |
| 20260506081520 | 46 | 101 | 0.0 | 3.0 | 0.00 | 0.77 | 0.47 | 92 | 1011.0 |
| 20260506081005 | 46 | 96 | 0.0 | 3.0 | 0.00 | 0.77 | 0.47 | 93 | 1010.9 |
| 20260506080507 | 46 | 240 | 0.0 | 2.0 | 0.00 | 0.77 | 0.47 | 93 | 1010.9 |
| 20260506073506 | 45 | 116 | 1.0 | 3.0 | 0.00 | 0.77 | 0.46 | 93 | 1010.8 |
| 20260506073018 | 45 | 282 | 0.0 | 3.0 | 0.00 | 0.77 | 0.46 | 93 | 1010.7 |
| 20260506072508 | 45 | 265 | 0.0 | 3.0 | 0.00 | 0.77 | 0.46 | 93 | 1010.7 |
| 20260506072009 | 45 | 254 | 1.0 | 3.0 | 0.00 | 0.77 | 0.46 | 93 | 1010.7 |
| 20260506071521 | 45 | 274 | 0.0 | 3.0 | 0.00 | 0.77 | 0.46 | 94 | 1010.8 |
| 20260506071008 | 45 | 245 | 0.0 | 4.0 | 0.00 | 0.77 | 0.46 | 94 | 1010.8 |
| 20260506070509 | 44 | 233 | 1.0 | 4.0 | 0.00 | 0.77 | 0.46 | 94 | 1010.7 |
| 20260506062507 | 44 | 278 | 0.0 | 4.0 | 0.04 | 0.77 | 0.46 | 94 | 1010.2 |
| 20260506062010 | 44 | 264 | 0.0 | 4.0 | 0.05 | 0.77 | 0.46 | 94 | 1010.2 |
| 20260506061538 | 44 | 281 | 0.0 | 4.0 | 0.05 | 0.77 | 0.46 | 94 | 1010.3 |
| 20260506061008 | 44 | 139 | 1.0 | 6.0 | 0.05 | 0.77 | 0.46 | 94 | 1010.2 |
| 20260506060505 | 44 | 307 | 1.0 | 6.0 | 0.05 | 0.77 | 0.46 | 94 | 1010.3 |
| 20260506051004 | 44 | 206 | 1.0 | 4.0 | 0.03 | 0.73 | 0.40 | 94 | 1009.8 |
| 20260506050506 | 44 | 286 | 1.0 | 5.0 | 0.03 | 0.73 | 0.40 | 94 | 1009.7 |
| 20260506045008 | 44 | 294 | 1.0 | 3.0 | 0.00 | 0.70 | 0.38 | 94 | 1009.7 |
| 20260506044524 | 44 | 65 | 0.0 | 3.0 | 0.00 | 0.70 | 0.38 | 94 | 1009.7 |
| 20260506044007 | 44 | 271 | 1.0 | 3.0 | 0.00 | 0.70 | 0.38 | 95 | 1009.6 |
| 20260506043508 | 44 | 72 | 0.0 | 2.0 | 0.01 | 0.70 | 0.38 | 94 | 1009.6 |
| 20260506043036 | 44 | 141 | 0.0 | 1.0 | 0.00 | 0.70 | 0.37 | 94 | 1009.6 |
| 20260506042506 | 44 | 200 | 0.0 | 1.0 | 0.00 | 0.70 | 0.37 | 94 | 1009.6 |
| 20260506042009 | 44 | 160 | 0.0 | 2.0 | 0.00 | 0.70 | 0.37 | 94 | 1009.6 |
| 20260506041531 | 44 | 200 | 0.0 | 2.0 | 0.00 | 0.70 | 0.37 | 95 | 1009.6 |
| 20260506041007 | 44 | 266 | 0.0 | 1.0 | 0.00 | 0.70 | 0.37 | 94 | 1009.6 |
| 20260506040504 | 44 | 284 | 0.0 | 1.0 | 0.00 | 0.70 | 0.37 | 94 | 1009.7 |
| 20260506040010 | 44 | 157 | 0.0 | 1.0 | 0.00 | 0.70 | 0.37 | 94 | 1009.7 |
| 20260506035505 | 44 | 152 | 0.0 | 1.0 | 0.00 | 0.70 | 0.37 | 94 | 1009.7 |
| 20260506035009 | 44 | 190 | 0.0 | 4.0 | 0.00 | 0.70 | 0.37 | 94 | 1009.7 |
| 20260506034519 | 44 | 261 | 0.0 | 4.0 | 0.00 | 0.70 | 0.37 | 94 | 1009.8 |
| 20260506034007 | 44 | 277 | 0.0 | 4.0 | 0.01 | 0.70 | 0.37 | 94 | 1009.8 |
| 20260506033507 | 44 | 271 | 1.0 | 3.0 | 0.01 | 0.70 | 0.37 | 94 | 1009.8 |
| 20260506033022 | 44 | 274 | 1.0 | 3.0 | 0.02 | 0.70 | 0.37 | 94 | 1009.7 |
| 20260506032507 | 44 | 276 | 1.0 | 3.0 | 0.03 | 0.70 | 0.37 | 94 | 1009.8 |
| 20260506032010 | 44 | 290 | 1.0 | 3.0 | 0.04 | 0.70 | 0.37 | 94 | 1009.8 |
| 20260506031536 | 44 | 287 | 1.0 | 3.0 | 0.04 | 0.70 | 0.37 | 94 | 1009.8 |
| 20260506031013 | 44 | 236 | 1.0 | 3.0 | 0.04 | 0.70 | 0.37 | 94 | 1009.8 |
| 20260506030509 | 44 | 294 | 1.0 | 3.0 | 0.04 | 0.70 | 0.37 | 94 | 1009.8 |
| 20260506030030 | 44 | 295 | 0.0 | 3.0 | 0.04 | 0.70 | 0.37 | 94 | 1009.8 |
| 20260506025507 | 44 | 259 | 1.0 | 3.0 | 0.04 | 0.70 | 0.37 | 94 | 1009.8 |
| 20260506025004 | 44 | 251 | 0.0 | 2.0 | 0.04 | 0.70 | 0.37 | 94 | 1009.8 |
| 20260506024532 | 44 | 257 | 0.0 | 1.0 | 0.04 | 0.70 | 0.37 | 94 | 1009.8 |
| 20260506024011 | 44 | 279 | 0.0 | 1.0 | 0.03 | 0.70 | 0.36 | 94 | 1009.8 |
| 20260506023508 | 44 | 207 | 0.0 | 2.0 | 0.03 | 0.69 | 0.35 | 94 | 1009.8 |
| 20260506023018 | 44 | 265 | 0.0 | 3.0 | 0.03 | 0.69 | 0.34 | 94 | 1009.9 |
| 20260506022511 | 44 | 257 | 0.0 | 3.0 | 0.01 | 0.67 | 0.33 | 94 | 1009.9 |
| 20260506022009 | 44 | 273 | 0.0 | 2.0 | 0.00 | 0.69 | 0.32 | 94 | 1009.9 |
| 20260506021522 | 44 | 263 | 0.0 | 2.0 | 0.00 | 0.70 | 0.32 | 94 | 1009.8 |
| 20260506021008 | 44 | 198 | 0.0 | 2.0 | 0.00 | 0.70 | 0.32 | 94 | 1009.8 |
| 20260506020505 | 44 | 284 | 0.0 | 2.0 | 0.00 | 0.70 | 0.32 | 94 | 1009.8 |
| 20260506020024 | 44 | 266 | 0.0 | 2.0 | 0.00 | 0.70 | 0.32 | 94 | 1009.8 |
| 20260506015509 | 44 | 288 | 0.0 | 1.0 | 0.00 | 0.70 | 0.32 | 94 | 1009.8 |
| 20260506015008 | 44 | 269 | 0.0 | 2.0 | 0.00 | 0.70 | 0.32 | 94 | 1009.8 |
| 20260506014530 | 44 | 279 | 0.0 | 2.0 | 0.00 | 0.70 | 0.32 | 94 | 1009.8 |
| 20260506014012 | 44 | 271 | 0.0 | 2.0 | 0.00 | 0.71 | 0.32 | 94 | 1009.9 |
| 20260506013511 | 44 | 253 | 0.0 | 2.0 | 0.00 | 0.70 | 0.31 | 94 | 1009.8 |
| 20260506013016 | 44 | 282 | 0.0 | 1.0 | 0.00 | 0.70 | 0.31 | 94 | 1009.9 |
| 20260506012507 | 44 | 272 | 0.0 | 3.0 | 0.00 | 0.70 | 0.31 | 94 | 1009.9 |
| 20260506012005 | 44 | 264 | 1.0 | 3.0 | 0.00 | 0.70 | 0.31 | 94 | 1009.9 |
| 20260506011518 | 44 | 300 | 1.0 | 3.0 | 0.01 | 0.70 | 0.31 | 94 | 1010.0 |
| 20260506011010 | 44 | 275 | 0.0 | 3.0 | 0.02 | 0.70 | 0.31 | 94 | 1010.0 |
| 20260506010508 | 44 | 144 | 0.0 | 1.0 | 0.03 | 0.70 | 0.31 | 94 | 1010.1 |
| 20260506010023 | 44 | 220 | 0.0 | 1.0 | 0.03 | 0.70 | 0.31 | 94 | 1010.2 |
| 20260506005507 | 44 | 211 | 0.0 | 1.0 | 0.04 | 0.70 | 0.31 | 94 | 1010.2 |
| 20260506005007 | 44 | 160 | 0.0 | 1.0 | 0.05 | 0.70 | 0.31 | 94 | 1010.3 |
| 20260506004527 | 44 | 221 | 0.0 | 1.0 | 0.06 | 0.70 | 0.31 | 94 | 1010.3 |
| 20260506004011 | 44 | 198 | 0.0 | 1.0 | 0.07 | 0.70 | 0.31 | 94 | 1010.3 |
| 20260506003509 | 44 | 270 | 0.0 | 1.0 | 0.07 | 0.70 | 0.31 | 94 | 1010.5 |
| 20260506003013 | 44 | 221 | 0.0 | 1.0 | 0.08 | 0.70 | 0.31 | 94 | 1010.5 |
| 20260506002506 | 44 | 215 | 0.0 | 1.0 | 0.09 | 0.70 | 0.30 | 94 | 1010.6 |
| 20260506002006 | 44 | 250 | 0.0 | 1.0 | 0.09 | 0.70 | 0.30 | 94 | 1010.6 |
| 20260506001515 | 44 | 281 | 0.0 | 3.0 | 0.09 | 0.70 | 0.29 | 94 | 1010.6 |
| 20260506001005 | 44 | 248 | 0.0 | 3.0 | 0.09 | 0.70 | 0.29 | 94 | 1010.6 |
| 20260506000506 | 44 | 281 | 1.0 | 2.0 | 0.09 | 0.70 | 0.28 | 94 | 1010.6 |
| 20260506000021 | 44 | 284 | 0.0 | 2.0 | 0.10 | 0.69 | 0.27 | 94 | 1010.7 |
| 20260505235506 | 44 | 138 | 0.0 | 2.0 | 0.11 | 0.68 | 0.26 | 94 | 1010.7 |
| 20260505235003 | 44 | 250 | 0.0 | 2.0 | 0.12 | 0.67 | 0.25 | 94 | 1010.8 |
| 20260505234503 | 45 | 153 | 0.0 | 2.0 | 0.15 | 0.66 | 0.25 | 94 | 1010.8 |
| 20260505234004 | 45 | 285 | 0.0 | 1.0 | 0.15 | 0.66 | 0.24 | 94 | 1010.8 |
| 20260505233503 | 45 | 160 | 0.0 | 1.0 | 0.16 | 0.66 | 0.23 | 94 | 1010.8 |
| 20260505233009 | 45 | 153 | 0.0 | 1.0 | 0.17 | 0.65 | 0.22 | 94 | 1010.9 |
| 20260505232507 | 45 | 136 | 0.0 | 0.0 | 0.17 | 0.63 | 0.21 | 94 | 1011.0 |
| 20260505232005 | 45 | 191 | 0.0 | 1.0 | 0.17 | 0.63 | 0.21 | 94 | 1010.9 |
| 20260505231511 | 45 | 158 | 0.0 | 1.0 | 0.17 | 0.62 | 0.20 | 94 | 1011.0 |
| 20260505231003 | 45 | 137 | 0.0 | 1.0 | 0.17 | 0.62 | 0.19 | 93 | 1011.1 |
| 20260505230506 | 45 | 136 | 0.0 | 1.0 | 0.17 | 0.61 | 0.18 | 93 | 1011.1 |
| 20260505230019 | 45 | 187 | 0.0 | 1.0 | 0.17 | 0.59 | 0.17 | 93 | 1011.1 |
| 20260505225506 | 45 | 231 | 0.0 | 2.0 | 0.18 | 0.58 | 0.15 | 93 | 1011.2 |
| 20260505225007 | 45 | 231 | 0.0 | 2.0 | 0.18 | 0.55 | 0.13 | 93 | 1011.2 |
| 20260505224522 | 44 | 231 | 0.0 | 2.0 | 0.15 | 0.51 | 0.09 | 93 | 1011.2 |
| 20260505224010 | 44 | 165 | 0.0 | 1.0 | 0.17 | 0.51 | 0.08 | 93 | 1011.2 |
| 20260505223512 | 44 | 100 | 0.0 | 1.0 | 0.18 | 0.50 | 0.07 | 93 | 1011.3 |
| 20260505223003 | 44 | 134 | 0.0 | 1.0 | 0.21 | 0.48 | 0.05 | 93 | 1011.2 |
| 20260505222502 | 44 | 191 | 0.0 | 1.0 | 0.22 | 0.47 | 0.03 | 93 | 1011.2 |
| 20260505222005 | 44 | 224 | 0.0 | 1.0 | 0.23 | 0.47 | 0.03 | 93 | 1011.3 |
| 20260505221511 | 44 | 222 | 0.0 | 1.0 | 0.22 | 0.46 | 0.03 | 92 | 1011.4 |
| 20260505221005 | 44 | 226 | 0.0 | 1.0 | 0.22 | 0.45 | 0.02 | 92 | 1011.5 |
| 20260505220503 | 44 | 254 | 0.0 | 1.0 | 0.21 | 0.44 | 0.01 | 92 | 1011.5 |
| 20260505220013 | 44 | 245 | 0.0 | 1.0 | 0.19 | 0.43 | 0.00 | 92 | 1011.5 |
| 20260505215506 | 45 | 271 | 0.0 | 1.0 | 0.17 | 0.40 | 0.40 | 92 | 1011.5 |
| 20260505215006 | 45 | 233 | 0.0 | 1.0 | 0.14 | 0.38 | 0.38 | 91 | 1011.6 |
| 20260505214524 | 45 | 280 | 0.0 | 1.0 | 0.13 | 0.37 | 0.37 | 91 | 1011.6 |
| 20260505214010 | 45 | 263 | 0.0 | 4.0 | 0.11 | 0.34 | 0.34 | 91 | 1011.7 |
| 20260505213507 | 46 | 250 | 0.0 | 4.0 | 0.08 | 0.32 | 0.32 | 91 | 1011.8 |
| 20260505213021 | 46 | 271 | 2.0 | 4.0 | 0.03 | 0.27 | 0.27 | 92 | 1011.7 |
| 20260505212509 | 47 | 258 | 0.0 | 1.0 | 0.01 | 0.25 | 0.25 | 93 | 1011.6 |
| 20260505212010 | 47 | 233 | 0.0 | 2.0 | 0.00 | 0.24 | 0.23 | 93 | 1011.6 |
| 20260505211525 | 47 | 200 | 0.0 | 2.0 | 0.00 | 0.24 | 0.23 | 93 | 1011.6 |
| 20260505211004 | 47 | 162 | 0.0 | 2.0 | 0.00 | 0.24 | 0.23 | 93 | 1011.6 |
| 20260505210505 | 47 | 254 | 0.0 | 2.0 | 0.00 | 0.25 | 0.23 | 93 | 1011.7 |
| 20260505210007 | 47 | 269 | 0.0 | 1.0 | 0.00 | 0.25 | 0.23 | 93 | 1011.8 |
| 20260505205503 | 47 | 228 | 0.0 | 1.0 | 0.00 | 0.25 | 0.23 | 93 | 1011.8 |
| 20260505205007 | 46 | 111 | 0.0 | 1.0 | 0.00 | 0.27 | 0.23 | 92 | 1011.8 |
| 20260505204517 | 47 | 255 | 0.0 | 1.0 | 0.00 | 0.27 | 0.23 | 92 | 1011.7 |
| 20260505204008 | 47 | 338 | 0.0 | 1.0 | 0.00 | 0.29 | 0.23 | 92 | 1011.7 |
| 20260505203507 | 47 | 220 | 0.0 | 1.0 | 0.00 | 0.29 | 0.23 | 92 | 1011.6 |
| 20260505203020 | 47 | 202 | 0.0 | 1.0 | 0.00 | 0.31 | 0.23 | 92 | 1011.5 |
| 20260505202507 | 47 | 142 | 0.0 | 1.0 | 0.00 | 0.32 | 0.23 | 92 | 1011.5 |
| 20260505202006 | 47 | 297 | 0.0 | 1.0 | 0.00 | 0.33 | 0.23 | 92 | 1011.5 |
| 20260505201520 | 47 | 226 | 0.0 | 1.0 | 0.00 | 0.34 | 0.23 | 92 | 1011.5 |
| 20260505201009 | 47 | 163 | 0.0 | 1.0 | 0.00 | 0.37 | 0.23 | 92 | 1011.6 |
| 20260505200509 | 47 | 230 | 0.0 | 1.0 | 0.00 | 0.39 | 0.23 | 92 | 1011.6 |
| 20260505200030 | 47 | 255 | 0.0 | 1.0 | 0.00 | 0.40 | 0.23 | 91 | 1011.6 |
| 20260505195509 | 47 | 278 | 0.0 | 1.0 | 0.00 | 0.41 | 0.23 | 91 | 1011.5 |
| 20260505195003 | 47 | 150 | 0.0 | 1.0 | 0.00 | 0.43 | 0.23 | 91 | 1011.4 |
| 20260505194509 | 47 | 233 | 0.0 | 1.0 | 0.00 | 0.44 | 0.23 | 91 | 1011.3 |
| 20260505194006 | 47 | 126 | 0.0 | 1.0 | 0.00 | 0.46 | 0.23 | 91 | 1011.3 |
| 20260505193508 | 47 | 141 | 0.0 | 1.0 | 0.00 | 0.47 | 0.23 | 91 | 1011.3 |
| 20260505193013 | 47 | 148 | 0.0 | 1.0 | 0.00 | 0.47 | 0.23 | 91 | 1011.4 |
| 20260505192508 | 47 | 152 | 0.0 | 1.0 | 0.00 | 0.48 | 0.23 | 91 | 1011.4 |
| 20260505192009 | 47 | 89 | 0.0 | 1.0 | 0.00 | 0.48 | 0.23 | 91 | 1011.3 |
| 20260505191521 | 47 | 191 | 0.0 | 1.0 | 0.00 | 0.48 | 0.23 | 91 | 1011.4 |
| 20260505191006 | 47 | 192 | 0.0 | 1.0 | 0.00 | 0.49 | 0.23 | 91 | 1011.4 |
| 20260505190506 | 47 | 236 | 0.0 | 1.0 | 0.00 | 0.51 | 0.23 | 91 | 1011.3 |
| 20260505190028 | 47 | 153 | 0.0 | 0.0 | 0.00 | 0.53 | 0.23 | 90 | 1011.2 |
| 20260505185510 | 47 | 154 | 0.0 | 0.0 | 0.00 | 0.55 | 0.23 | 90 | 1011.2 |
| 20260505185010 | 47 | 153 | 0.0 | 1.0 | 0.00 | 0.60 | 0.23 | 90 | 1011.2 |
| 20260505184524 | 48 | 214 | 0.0 | 1.0 | 0.00 | 0.65 | 0.23 | 89 | 1011.1 |
| 20260505184010 | 48 | 214 | 0.0 | 1.0 | 0.00 | 0.70 | 0.23 | 89 | 1011.0 |
| 20260505183510 | 48 | 272 | 0.0 | 1.0 | 0.00 | 0.74 | 0.23 | 89 | 1010.8 |
| 20260505183012 | 48 | 270 | 0.0 | 1.0 | 0.00 | 0.77 | 0.23 | 88 | 1011.0 |
| 20260505182502 | 49 | 66 | 0.0 | 1.0 | 0.00 | 0.80 | 0.23 | 89 | 1011.1 |
| 20260505182003 | 49 | 281 | 0.0 | 1.0 | 0.00 | 0.83 | 0.23 | 88 | 1011.0 |
| 20260505181504 | 49 | 320 | 0.0 | 1.0 | 0.00 | 0.85 | 0.23 | 88 | 1010.9 |
| 20260505181002 | 49 | 219 | 0.0 | 1.0 | 0.00 | 0.87 | 0.23 | 88 | 1011.0 |
| 20260505180504 | 49 | 160 | 0.0 | 1.0 | 0.00 | 0.88 | 0.23 | 87 | 1011.0 |
| 20260505180005 | 49 | 135 | 0.0 | 1.0 | 0.00 | 0.90 | 0.23 | 87 | 1010.9 |
| 20260505175506 | 49 | 135 | 0.0 | 1.0 | 0.00 | 0.92 | 0.23 | 87 | 1011.0 |
| 20260505175005 | 50 | 135 | 0.0 | 1.0 | 0.00 | 0.92 | 0.23 | 86 | 1011.0 |
| 20260505174506 | 50 | 115 | 0.0 | 2.0 | 0.00 | 0.94 | 0.23 | 86 | 1011.0 |
| 20260505174002 | 50 | 257 | 0.0 | 2.0 | 0.00 | 0.95 | 0.23 | 86 | 1011.1 |
| 20260505173506 | 50 | 262 | 0.0 | 1.0 | 0.00 | 0.95 | 0.23 | 84 | 1011.1 |
| 20260505173004 | 51 | 213 | 0.0 | 1.0 | 0.00 | 0.96 | 0.23 | 84 | 1011.1 |
| 20260505172502 | 51 | 158 | 0.0 | 1.0 | 0.00 | 0.96 | 0.23 | 83 | 1011.2 |
| 20260505172002 | 51 | 143 | 0.0 | 1.0 | 0.00 | 0.97 | 0.23 | 83 | 1011.2 |
| 20260505171506 | 51 | 283 | 0.0 | 1.0 | 0.00 | 0.98 | 0.23 | 85 | 1011.2 |
| 20260505171002 | 51 | 39 | 0.0 | 2.0 | 0.00 | 0.99 | 0.23 | 85 | 1011.2 |
| 20260505170504 | 50 | 38 | 0.0 | 2.0 | 0.00 | 0.99 | 0.23 | 84 | 1011.2 |
| 20260505170007 | 50 | 240 | 0.0 | 2.0 | 0.00 | 0.99 | 0.23 | 83 | 1011.2 |
| 20260505165502 | 50 | 276 | 0.0 | 1.0 | 0.00 | 0.99 | 0.23 | 83 | 1011.1 |
| 20260505165003 | 51 | 285 | 0.0 | 2.0 | 0.00 | 0.99 | 0.23 | 83 | 1011.2 |
| 20260505164504 | 51 | 281 | 0.0 | 2.0 | 0.01 | 0.99 | 0.23 | 83 | 1011.2 |
| 20260505164003 | 51 | 250 | 0.0 | 1.0 | 0.02 | 0.99 | 0.23 | 82 | 1011.2 |
| 20260505163505 | 51 | 270 | 0.0 | 2.0 | 0.02 | 0.99 | 0.23 | 83 | 1011.3 |
| 20260505163009 | 51 | 125 | 0.0 | 2.0 | 0.02 | 0.99 | 0.23 | 86 | 1011.3 |
| 20260505162502 | 51 | 280 | 0.0 | 2.0 | 0.02 | 0.99 | 0.23 | 87 | 1011.3 |
| 20260505162003 | 50 | 119 | 0.0 | 2.0 | 0.02 | 0.99 | 0.23 | 89 | 1011.4 |
| 20260505161504 | 50 | 128 | 0.0 | 3.0 | 0.02 | 0.99 | 0.23 | 89 | 1011.5 |
| 20260505161003 | 49 | 117 | 1.0 | 3.0 | 0.02 | 0.99 | 0.23 | 90 | 1011.6 |
| 20260505160506 | 49 | 160 | 0.0 | 1.0 | 0.02 | 0.99 | 0.23 | 90 | 1011.6 |
| 20260505153003 | 50 | 122 | 0.0 | 2.0 | 0.00 | 0.96 | 0.21 | 89 | 1011.7 |
| 20260505152501 | 50 | 146 | 0.0 | 3.0 | 0.02 | 0.96 | 0.21 | 90 | 1011.7 |
| 20260505152004 | 49 | 162 | 0.0 | 3.0 | 0.05 | 0.96 | 0.21 | 90 | 1011.7 |
| 20260505151504 | 49 | 106 | 1.0 | 3.0 | 0.06 | 0.96 | 0.21 | 90 | 1011.8 |
| 20260505151004 | 49 | 98 | 0.0 | 3.0 | 0.07 | 0.96 | 0.21 | 91 | 1011.8 |
| 20260505150503 | 48 | 163 | 0.0 | 2.0 | 0.07 | 0.96 | 0.21 | 91 | 1011.7 |
| 20260505140503 | 53 | 253 | 2.0 | 7.0 | 0.00 | 0.88 | 0.13 | 78 | 1011.1 |